Terminal Aerodrome Forecast
Issued by NWS

Current Version | Previous Version | Text Only | Print | Product List | Glossary On
Versions: 1 2 3 4 5 6 7 8 9 10 11 12 13
000
FTUS42 KTAE 300500
TAFECP
TAF
KECP 300537Z 3006/3106 00000KT P6SM SCT120
     FM301500 16007KT P6SM VCTS SCT035CB BKN050
     FM302300 22005KT P6SM SCT250=

USA.gov is the U.S. government's official web portal to all federal, state and local government web resources and services.